Regional Weather Roundup
Issued by NWS Newport/Morehead, NC

Current Version | Previous Version | Graphics & Text | Print | Product List | Glossary On
Versions: 1 2 3 4 5 6 7 8 9 10 11 12 13 14 15 16 17 18 19 20 21 22 23 24 25 26 27 28 29 30 31 32 33 34 35 36 37 38 39 40 41 42 43 44 45 46 47 48 49 50
000 ASUS42 KMHX 122113 RWRMHX WEATHER ROUNDUP FOR EASTERN NORTH CAROLINA NATIONAL WEATHER SERVICE NEWPORT/MOREHEAD CITY NC 400 PM EST TUE DEC 12 2017 NOTE: "FAIR" INDICATES FEW OR NO CLOUDS BELOW 12,000 FEET WITH NO SIGNIFICANT WEATHER AND/OR OBSTRUCTIONS TO VISIBILITY NCZ015>017-031-032-045>047-102-103-122200- NORTH COAST CITY SKY/WX TMP DP RH WIND PRES REMARKS EDENTON PTCLDY 55 38 52 NW9 29.58R ELIZABETH CITY MOCLDY 52 40 63 W13 29.56R KITTY HAWK CLOUDY 50 40 67 CALM 29.53S MANTEO CLOUDY 51 40 63 NW9 29.55R $$ NCZ045>047-081-094-103-104-122200- CENTRAL COAST CITY SKY/WX TMP DP RH WIND PRES REMARKS FRISCO PTCLDY 54 46 74 VRB6 29.54S $$ NCZ095-097-098-100-101-122200- SOUTHERN COAST CITY SKY/WX TMP DP RH WIND PRES REMARKS BEAUFORT PTCLDY 58 43 57 W13 29.56R CEDAR ISLAND NOT AVBL JACKSONVILLE CLOUDY 56 41 57 NW16 29.59R PINEY ISLAND N/A N/A N/A N/A W12 29.55R WILMINGTON MOSUNNY 58 39 49 W15 29.61R $$ NCZ011>013-027>030-043-044-078>080-089-090>093-098-122200- COASTAL PLAIN CITY SKY/WX TMP DP RH WIND PRES REMARKS AHOSKIE CLOUDY 50 34 55 CALM 29.58S CLINTON PTCLDY 55 35 47 NW8 29.63S ELIZABETHTOWN NOT AVBL GOLDSBORO PTCLDY 55 34 45 W8 29.60R GREENVILLE PTCLDY 54 34 47 NW8 29.63S HAVELOCK MOCLDY 57 41 55 W12G20 29.57S KENANSVILLE MOCLDY 54 37 54 W8 29.62R KINSTON PTCLDY 54 32 43 W8G17 29.62R NEW BERN CLOUDY 53 40 61 NW9G20 29.59R RICHLANDS PTCLDY 54 39 57 VRB7 29.62R ROCKY MOUNT MOCLDY 52 33 48 W8 29.60S WASHINGTON PTCLDY 54 35 48 W10G17 29.59R WHITEVILLE PTSUNNY 56 37 48 W5 29.64R $$ AMZ130-135-150-152-154-156-158-170-250-252-270-ANZ085-086-088-633-658-670-122200- MARINE OBSERVATIONS STATION/POSITION TIME TEMP WIND PRES WAVE SWELL AIR SEA DIR/SP/G HT/PER HT/PER (UTC) (F) (DEG/KT/KT) (MB) (FT/S) (FT/S) CHESAPEAKE LIGHT NOT AVBL 64 E VA BEACH 2050 54 61 270/ 17/ 21 999.5 6/ 6 2/ 8 DUCK 2048 51 56 260/ 9/ 11 999.9 2 E DUCK 2100 56 N/A 1/ 8 OREGON INLET 2042 53 47 290/ 10/ 13 1000.0 13E OREGON INLT 2048 59 N/A 5/ 7 3/ 7 HATTERAS CG 2048 55 57 280/ 14/ 16 1000.0 DIAMOND BUOY 2100 65 73 260/ 29/ 37 999.4 CAPE LOOKOUT 2100 270/ 14/ 18 1001.1 BEAUFORT LAB 2048 58 53 280/ 4/ 8 1000.8 30 SE NEW RVR IN 2008 63 65 240/ 19/ 29 1000.6 30 SE NEW RVR IN 2100 64 N/A 9/ 7 27 SE WRIGHTSVLE 2008 60 66 250/ 25/ 33 1001.8 5 SE WRIGHTSVLE 2008 59 58 250/ 14/ 19 1001.5 225 S CAPE HAT 2050 70 75 230/ 27/ 33 1005.3 9/ 7 41 SE CHARLESTON 2100 62 75 260/ 29/ 35 1004.9 $$

USA.gov is the U.S. government's official web portal to all federal, state and local government web resources and services.